GFSSW_sfc_temp_021.txt.gz
Temp
64 64 64 65 65 65 65 65 65 64 64 64 65 64 64 65 68 68 63 67 67 70 68 65 67 66 64 61 60 55 48 44 46 48 49 52 52 52 51 50 48 49 48 51 53
62 63 63 64 64 64 64 65 64 64 64 64 64 64 65 64 67 65 70 72 71 71 66 65 63 64 59 58 57 52 46 48 51 51 51 54 53 54 50 46 45 46 49 51 50
60 61 62 63 63 64 64 64 64 63 63 63 63 64 64 62 64 64 72 72 72 69 64 63 62 61 56 56 54 50 49 52 53 54 55 53 51 53 49 46 46 45 46 47 46
59 59 61 61 62 63 64 64 64 63 63 63 63 64 63 64 55 66 70 70 70 67 66 64 63 56 53 52 56 49 54 54 56 55 54 52 53 50 50 51 52 51 50 46 45
59 58 60 60 61 62 63 64 64 63 63 63 64 64 63 60 63 67 70 69 67 67 64 61 59 54 50 50 55 49 51 54 55 55 53 53 53 52 50 46 51 50 48 45 44
59 58 59 60 60 62 62 63 63 63 63 63 64 63 61 56 65 67 66 66 65 65 61 61 56 56 52 51 49 51 51 53 54 54 53 52 48 49 47 45 46 48 44 44 45
60 58 58 59 60 61 62 62 63 63 63 64 65 66 61 63 65 65 67 62 62 62 60 58 58 55 53 51 54 51 49 51 51 52 51 51 47 49 48 46 45 44 43 44 44
60 59 58 59 60 60 61 62 62 62 63 64 65 61 58 64 62 65 64 62 64 64 62 60 58 57 52 52 52 47 44 42 49 49 49 51 43 51 48 46 43 42 40 43 44
59 59 59 59 59 60 61 61 62 63 65 65 59 59 56 65 61 63 61 61 61 61 61 66 58 51 51 45 43 43 38 38 46 50 47 47 44 49 47 46 43 42 41 42 41
59 59 59 59 59 60 60 62 63 63 64 65 67 56 58 58 60 61 60 61 58 57 57 55 50 47 44 44 39 39 38 40 40 46 43 43 45 48 45 45 44 42 40 41 40
59 59 59 59 60 61 57 60 61 58 59 58 56 55 57 59 60 59 60 59 57 54 49 49 47 44 47 46 45 42 40 39 41 47 43 42 45 51 47 44 41 38 39 40 40
59 59 59 60 60 60 55 54 48 50 51 52 53 55 58 57 54 57 61 55 53 49 49 47 45 49 48 46 45 41 39 38 43 43 43 42 41 46 48 45 46 44 41 41 39
59 58 58 59 59 56 51 48 52 50 46 52 54 54 55 58 54 55 59 54 50 47 47 45 47 49 48 43 42 39 38 38 40 40 40 37 33 40 44 42 43 47 45 43 42
59 58 58 58 56 50 50 51 52 50 42 50 50 54 55 54 50 56 56 54 48 48 46 45 47 47 43 43 43 37 42 40 39 35 30 38 30 36 40 43 39 41 41 42 40
58 58 58 58 48 51 51 52 50 51 27 50 49 57 54 51 51 51 54 52 47 47 47 46 44 42 42 44 45 42 41 38 36 33 28 30 27 31 34 38 44 37 39 41 40
60 58 57 54 49 49 51 48 50 42 31 47 50 49 48 48 49 50 50 53 49 46 43 44 44 46 45 42 42 43 38 36 31 29 22 30 30 28 32 38 40 36 39 38 37
59 58 54 53 50 50 49 49 39 31 48 46 45 46 45 45 46 47 46 43 43 39 37 39 41 41 43 39 39 39 36 28 24 20 26 29 26 39 43 44 41 38 37 37 38
58 57 54 53 51 50 48 44 29 39 43 47 46 44 44 46 45 44 41 40 43 41 35 36 39 39 42 42 39 35 37 29 19 19 30 27 26 35 40 38 37 39 39 38 35
57 52 51 51 51 50 44 31 36 40 47 46 44 39 40 44 44 40 38 38 44 45 43 33 34 37 38 38 40 35 32 35 28 6 12 28 30 37 36 35 33 35 35 34 35
52 51 52 53 52 48 38 41 40 47 48 45 44 45 38 41 40 39 38 42 44 45 44 43 37 34 35 36 36 35 38 29 24 15 11 22 26 34 37 36 30 30 32 34 35
51 45 49 54 53 45 36 37 42 49 50 47 42 41 41 41 41 37 40 43 44 41 42 40 39 33 34 32 33 31 31 31 30 25 18 14 31 36 39 39 31 33 34 34 34
49 40 46 54 42 38 38 38 45 44 52 47 45 44 44 43 39 38 39 48 47 43 40 39 35 28 30 30 33 34 36 36 28 22 19 21 33 38 38 39 35 35 35 34 34
44 46 45 48 35 37 34 38 45 42 47 47 44 46 46 44 41 40 47 46 45 44 40 40 32 22 27 28 30 29 32 34 31 27 28 22 31 36 37 33 35 34 33 34 33
44 37 42 43 44 40 38 38 38 44 47 46 44 44 41 41 47 44 39 42 40 42 46 47 34 33 35 36 30 27 29 32 34 27 32 32 35 43 45 41 33 32 32 33 33
44 40 43 36 38 41 39 39 41 38 43 46 44 46 45 42 43 42 46 36 35 41 38 40 36 32 40 42 33 34 37 30 29 34 32 37 37 43 48 49 45 43 34 33 33
45 43 41 40 39 40 41 38 38 41 40 40 42 44 47 44 46 44 45 40 40 30 33 33 32 31 32 35 33 32 37 37 35 36 36 37 36 48 52 51 48 38 34 33 32
51 50 45 43 41 38 37 39 40 43 44 47 45 44 42 46 53 54 46 47 44 38 29 28 27 23 30 32 29 26 34 36 39 41 39 32 39 47 45 40 36 33 34 33 31

GFSSW_sfc_temp_024.txt.gz
Temp
62 63 64 64 64 64 65 65 65 64 64 64 65 64 64 65 67 66 62 67 67 71 68 63 64 62 62 59 57 53 47 43 45 47 49 52 51 49 49 49 45 47 46 49 51
61 60 63 63 63 64 64 64 64 64 64 64 64 64 65 65 65 64 70 73 72 71 64 63 61 62 58 56 55 51 45 47 50 50 50 52 52 52 49 44 45 43 46 48 49
60 59 60 62 62 63 64 64 64 63 63 63 63 64 64 62 63 64 73 72 72 68 63 61 61 59 55 54 52 48 48 49 52 53 54 52 49 52 49 44 48 45 45 46 45
59 59 59 60 62 62 63 64 64 63 63 63 63 64 64 62 54 63 70 70 70 66 64 63 62 56 51 50 52 48 51 52 54 53 52 50 50 49 49 51 48 49 49 45 44
60 59 58 59 60 62 62 63 63 63 63 63 63 64 62 58 63 65 69 68 66 65 62 60 58 52 49 48 51 48 50 52 52 53 52 51 51 51 49 45 48 48 47 45 43
60 60 59 59 60 61 62 63 63 63 63 63 64 64 60 55 64 65 63 64 63 62 59 60 56 55 52 49 48 48 50 51 52 52 51 49 47 47 47 44 44 46 45 44 44
60 59 59 59 60 61 61 62 62 62 62 63 65 63 58 62 63 63 65 60 60 60 59 57 58 55 52 49 51 48 48 50 47 50 50 48 47 47 46 44 43 43 42 43 43
60 59 59 59 60 60 61 62 62 62 63 64 65 59 58 62 61 63 62 61 62 62 61 59 58 56 52 51 50 45 43 42 47 49 48 48 42 52 45 43 42 41 39 42 43
60 59 59 59 59 60 60 61 61 63 64 64 58 58 57 66 60 61 60 60 59 59 59 64 57 50 50 45 42 41 39 37 45 48 46 46 44 49 44 43 42 41 40 42 41
60 60 59 59 59 60 60 61 62 62 63 64 65 55 57 57 58 59 58 60 57 55 56 55 49 46 43 43 39 39 35 37 39 45 43 42 44 51 45 42 43 43 42 41 42
60 60 59 59 60 61 56 57 59 57 57 57 55 54 55 58 59 57 59 58 56 52 49 47 46 43 47 46 43 41 39 38 40 45 42 43 44 51 51 42 41 41 39 40 42
61 61 59 59 59 60 53 52 46 48 48 52 53 53 56 55 52 55 59 54 51 47 47 44 43 48 47 45 44 39 36 37 41 41 42 41 41 46 52 51 45 46 42 41 42
60 60 59 59 59 55 50 46 51 48 44 51 52 52 53 57 53 53 58 52 48 44 44 43 45 48 47 42 42 38 37 36 39 38 38 36 37 38 46 45 45 46 48 44 42
59 60 60 58 56 49 49 50 50 48 40 48 48 52 53 53 49 55 55 52 46 46 44 45 46 47 42 43 43 36 40 38 37 34 30 36 34 35 44 46 43 41 40 42 42
58 59 59 58 48 50 51 50 48 50 27 49 49 55 52 50 48 49 52 50 45 45 45 45 42 41 41 43 44 41 39 36 34 31 26 29 27 33 34 41 49 51 40 41 42
58 58 58 52 47 48 50 47 50 41 30 45 48 47 47 47 47 48 48 51 47 44 41 43 42 44 44 41 41 41 37 34 29 27 21 32 32 28 33 40 42 42 40 38 38
58 58 55 52 48 49 48 48 38 30 45 45 45 45 43 44 45 46 44 42 41 37 37 39 40 39 42 38 37 38 35 28 24 20 27 27 25 40 41 43 44 44 40 36 36
58 57 55 53 49 49 47 43 28 37 41 45 44 42 43 45 43 43 39 39 42 39 34 36 41 39 41 42 39 34 36 28 19 19 35 26 25 37 41 46 38 37 37 36 34
57 50 52 52 51 49 44 30 34 39 44 45 42 38 39 42 43 40 38 38 43 45 43 34 35 36 37 38 39 34 32 34 28 10 15 30 31 38 40 39 37 35 36 34 34
52 50 50 53 52 51 37 41 39 45 46 45 43 44 37 40 39 39 39 41 44 46 46 44 38 34 35 36 34 33 36 30 27 19 13 30 30 37 42 43 40 34 34 34 32
51 45 48 53 52 45 36 36 40 47 49 46 41 40 41 41 41 37 40 43 45 42 45 42 41 36 34 32 32 31 30 30 31 26 20 17 34 37 42 43 41 37 36 34 33
49 40 45 55 42 42 37 36 44 43 46 46 42 44 45 42 39 37 38 49 48 44 41 42 38 34 36 29 32 32 34 36 29 24 17 19 33 38 40 40 39 36 37 33 34
45 45 47 50 35 37 33 36 42 40 45 46 42 43 44 41 39 40 48 46 44 45 41 41 35 27 30 28 29 30 33 34 32 28 24 21 34 39 38 38 36 35 35 33 32
44 38 41 43 44 42 38 36 37 42 45 43 42 44 39 42 48 44 39 41 41 44 46 49 37 34 36 36 33 28 31 33 37 32 33 32 37 45 47 48 51 45 34 33 33
45 40 43 35 38 39 40 38 40 37 41 44 41 44 44 41 43 42 45 38 38 42 39 42 37 37 42 44 33 34 36 34 30 35 32 38 38 44 48 50 52 50 40 33 32
47 42 41 41 42 39 40 38 39 40 38 36 40 41 45 41 45 42 44 41 42 30 34 33 34 36 34 39 33 33 38 38 34 37 36 37 37 51 53 54 51 50 47 35 32
52 49 45 41 39 37 38 38 40 42 44 46 45 43 42 44 49 52 49 43 43 40 30 27 28 22 29 34 29 25 34 39 41 43 40 32 40 49 47 47 47 47 38 35 34

GFSSW_sfc_temp_027.txt.gz
Temp
62 61 61 64 64 64 64 65 65 64 64 64 65 64 65 65 67 65 64 70 68 71 68 64 65 64 64 61 60 57 50 47 50 49 55 56 56 56 55 53 53 54 53 54 55
60 61 61 61 63 63 64 64 64 64 64 64 64 64 65 65 64 63 71 73 72 71 65 64 62 63 60 58 57 53 48 51 54 54 54 55 56 55 54 52 52 51 51 51 53
60 60 60 60 61 63 63 63 63 63 63 63 63 64 64 62 63 65 73 72 72 69 65 64 63 62 57 56 55 52 51 54 56 57 56 55 54 54 53 50 54 53 49 48 50
60 60 60 61 61 62 63 63 63 63 63 63 63 64 63 61 55 63 70 70 70 66 65 63 62 57 53 53 54 52 53 55 56 56 54 54 55 53 51 58 55 55 52 49 49
60 60 60 60 61 62 62 63 63 63 63 63 63 64 62 57 62 65 69 69 65 64 62 61 58 56 53 52 53 51 52 54 55 54 54 53 54 54 51 54 53 50 49 49 50
60 59 59 59 60 61 62 62 62 62 63 63 63 64 60 54 63 64 63 64 63 62 59 60 58 57 54 52 51 51 51 53 53 53 52 52 51 51 53 47 48 47 48 48 49
60 59 59 59 60 60 61 61 62 62 62 63 65 64 57 61 63 62 65 59 59 60 60 58 59 56 55 51 52 50 49 50 50 51 51 51 49 48 54 47 47 45 47 47 48
61 60 59 59 59 60 61 61 61 62 62 64 65 59 58 61 61 62 62 60 61 61 60 58 58 57 53 53 51 46 46 45 50 50 50 51 45 54 49 46 48 45 44 45 46
60 60 60 59 59 59 60 61 61 63 64 64 56 57 56 64 59 60 60 60 59 59 59 63 57 51 51 47 45 44 43 42 46 49 48 49 47 52 46 45 47 46 44 44 46
60 60 60 59 59 60 60 61 61 62 62 63 64 54 57 55 57 59 58 60 57 56 56 55 50 47 44 45 41 42 40 40 42 48 45 43 45 54 50 45 49 49 46 44 45
60 60 60 60 59 60 56 58 58 55 55 57 55 54 55 56 58 56 57 58 56 54 49 48 47 43 47 46 44 43 41 42 43 46 44 43 46 52 56 45 48 46 45 44 44
60 60 60 59 60 60 52 51 47 49 48 52 52 53 54 55 52 55 58 55 51 47 46 45 43 48 48 45 45 42 40 39 43 42 42 41 42 49 51 55 55 52 47 45 45
58 59 59 59 59 54 49 47 50 47 44 51 52 51 53 56 52 52 57 51 48 44 43 43 45 46 47 42 42 40 39 38 41 39 39 36 35 39 46 48 51 52 50 45 45
58 58 59 59 54 48 48 49 50 47 38 46 49 52 53 53 49 53 53 52 45 45 43 43 44 46 43 44 43 38 41 40 39 36 32 38 36 37 45 48 50 51 45 47 44
58 58 60 58 48 48 49 49 47 50 27 47 47 54 52 50 48 48 51 49 45 44 44 44 41 40 41 43 44 41 40 38 36 34 29 32 28 38 37 43 50 52 45 45 44
58 58 58 52 47 48 49 46 49 40 28 43 47 46 46 47 47 47 47 51 47 44 41 42 42 44 44 40 40 41 38 36 31 29 22 37 35 34 37 43 47 49 47 44 40
58 58 55 52 47 48 47 47 37 28 43 43 43 43 42 43 45 46 44 42 41 37 36 38 39 39 42 40 39 38 37 29 26 23 31 28 27 43 43 44 49 53 47 44 40
58 57 55 53 51 50 47 43 27 35 39 42 42 41 42 44 43 43 40 39 42 39 35 37 40 39 41 42 39 35 38 30 22 25 37 26 26 41 44 51 45 44 43 40 39
57 52 51 50 51 50 46 31 37 38 43 43 41 37 37 41 43 39 37 37 43 46 44 36 36 36 37 38 41 35 33 37 28 9 18 35 37 40 41 42 40 41 38 39 39
52 50 50 53 52 51 35 41 39 44 45 43 43 44 36 39 39 38 37 41 43 46 52 44 39 36 35 36 34 35 38 31 28 21 17 38 40 43 42 44 45 44 40 41 39
51 45 50 54 55 45 35 35 39 45 47 44 41 40 41 40 39 35 38 42 45 42 46 43 43 35 35 32 32 32 31 31 33 28 23 30 37 41 45 46 47 46 41 40 39
49 41 47 55 41 41 38 37 43 42 43 45 42 43 41 40 37 34 37 46 47 43 40 43 39 33 36 30 32 32 35 37 31 27 20 22 37 44 45 45 42 45 41 40 38
46 45 47 51 36 37 37 36 41 39 44 43 41 42 43 42 40 39 45 47 45 45 41 43 35 29 31 29 30 32 33 34 33 30 31 24 37 46 42 41 41 42 40 39 38
45 38 41 43 44 42 41 39 38 40 44 42 42 43 39 38 46 43 37 40 42 45 46 49 37 35 35 41 34 29 31 35 37 33 33 34 40 48 52 49 47 41 39 39 38
47 41 41 34 37 40 43 41 40 38 39 43 39 43 42 40 42 42 43 42 41 43 41 43 37 38 41 44 38 33 35 35 32 36 34 40 40 46 52 53 54 54 54 47 35
46 42 42 41 41 39 39 39 39 43 40 38 40 40 44 41 43 41 43 43 42 30 35 35 36 38 36 41 36 35 38 40 40 39 38 39 38 51 54 55 53 54 53 50 42
51 51 44 43 39 37 37 38 40 43 46 47 44 42 41 43 49 51 51 43 42 38 32 31 29 25 29 37 32 25 35 39 41 44 43 36 44 52 49 49 49 50 50 49 49

GFSSW_sfc_temp_030.txt.gz
Temp
61 62 62 63 63 64 64 65 65 64 64 64 65 64 65 65 66 76 75 78 76 71 70 77 78 77 76 72 71 70 68 64 64 62 67 68 68 67 65 66 65 67 65 64 68
61 61 62 63 63 63 64 64 64 64 64 64 64 64 65 65 76 76 76 74 73 71 76 77 75 76 75 71 71 71 66 66 69 69 68 68 68 69 66 65 65 64 65 61 64
61 60 62 62 62 63 63 63 63 63 63 63 63 64 64 70 76 78 73 73 72 73 76 77 76 75 71 71 69 67 67 68 68 69 68 67 66 69 67 64 71 70 71 61 61
61 60 60 61 62 62 63 63 63 63 63 63 63 64 64 78 68 76 71 71 71 77 76 74 74 71 69 67 68 65 66 67 67 66 65 65 67 65 67 73 72 74 72 63 61
61 60 60 60 61 62 62 63 63 63 62 63 63 64 72 73 75 76 69 71 76 76 74 74 73 70 68 68 66 65 66 65 67 64 65 63 65 67 66 73 72 66 64 63 63
61 60 59 59 60 61 62 62 62 62 63 63 63 64 76 67 74 75 74 73 75 76 73 74 73 71 68 67 66 67 64 66 65 65 64 62 65 62 71 69 68 64 64 65 64
61 60 59 59 60 60 61 61 62 62 62 63 64 71 72 74 75 75 74 72 72 74 72 71 72 70 68 64 64 62 62 64 63 63 62 62 60 60 72 62 65 63 64 64 64
61 60 60 60 60 60 60 61 61 62 62 64 65 74 71 72 76 73 74 72 73 73 71 71 72 68 66 64 63 61 60 60 64 60 60 61 59 72 73 63 65 68 66 62 62
61 60 60 60 59 59 60 60 61 63 65 65 71 73 69 70 70 72 74 71 70 71 70 70 70 65 64 64 63 59 61 59 59 62 59 59 61 67 64 62 65 69 68 63 61
60 60 60 59 59 59 60 61 63 64 68 70 72 68 69 67 68 69 72 71 69 68 67 67 67 64 62 63 57 61 57 60 57 61 56 57 58 66 70 61 64 70 71 67 62
60 60 60 59 59 60 61 71 73 69 68 68 68 66 65 66 68 66 69 69 69 68 63 61 62 60 66 66 66 61 58 59 65 57 56 59 57 62 67 67 63 65 68 68 64
60 60 60 59 60 60 61 65 61 59 60 62 60 60 63 66 62 63 69 66 64 61 60 59 57 66 61 60 56 57 56 57 62 53 52 55 54 59 62 64 66 66 68 68 65
59 59 60 59 59 61 59 58 58 58 57 60 61 61 62 65 62 62 65 63 61 56 57 59 64 55 56 55 53 55 55 57 54 53 51 48 51 54 62 60 63 63 66 68 64
59 59 59 59 59 57 58 57 57 58 55 56 58 60 59 61 58 60 63 63 59 57 55 57 59 55 54 54 56 51 57 54 51 48 48 50 45 58 63 61 60 67 71 63 60
59 59 59 59 55 57 55 57 58 58 41 57 56 62 58 57 56 56 61 62 57 54 55 57 50 50 51 55 56 55 50 49 48 48 43 50 43 55 50 52 59 65 69 65 63
59 58 59 57 56 56 56 57 58 52 38 53 54 52 52 54 53 55 57 61 59 54 53 54 53 53 56 48 50 49 49 47 43 45 38 51 48 53 54 56 61 65 69 61 58
58 58 57 58 56 57 56 59 49 42 52 51 51 50 51 50 51 52 51 50 51 46 49 52 52 51 51 50 49 50 49 45 43 40 41 46 42 51 58 61 62 67 70 60 58
58 57 57 59 60 57 57 54 39 49 51 52 50 48 50 51 51 49 48 48 51 49 48 49 49 47 52 55 54 48 52 46 35 39 44 39 38 54 60 64 65 56 60 54 54
57 55 54 57 57 58 53 43 48 52 53 50 48 47 48 49 52 48 49 50 54 52 49 45 48 45 44 47 49 45 43 49 41 32 33 49 57 55 53 54 53 53 53 54 55
53 51 51 56 56 54 46 45 51 54 52 52 51 54 50 54 47 48 48 52 51 52 57 51 46 47 41 47 45 46 47 41 42 33 34 47 48 51 55 53 55 54 55 60 56
53 46 52 55 54 45 38 45 52 54 55 52 53 52 52 53 50 48 54 53 54 51 53 52 50 45 42 42 45 41 42 42 41 39 37 35 45 60 57 55 55 58 58 61 57
50 42 49 54 41 41 36 45 48 48 52 53 51 53 54 53 50 49 50 54 58 50 46 51 45 43 48 43 44 45 46 48 42 38 39 41 42 49 57 59 56 57 57 58 57
46 46 48 51 38 37 42 43 46 47 49 50 50 50 55 50 43 50 53 56 52 51 48 46 38 35 41 37 38 41 42 46 49 47 39 36 41 59 61 61 55 56 60 56 58
47 39 41 44 45 43 41 42 41 47 49 49 45 49 43 43 49 45 48 50 49 52 48 51 40 41 39 45 46 41 42 43 43 38 39 41 46 54 58 58 60 62 59 56 58
48 42 42 34 38 40 43 43 41 40 45 47 43 46 44 41 45 46 50 51 45 46 46 47 35 39 43 48 48 47 46 46 38 42 40 45 47 53 58 60 62 64 62 61 61
43 43 41 41 43 39 39 40 40 45 45 41 41 46 46 42 40 43 46 47 46 40 43 42 37 39 35 44 44 40 45 45 44 44 45 43 42 55 57 58 58 58 58 57 57
46 46 43 42 40 38 37 38 40 45 47 50 47 45 42 46 51 52 52 48 46 43 41 39 37 33 28 38 39 30 39 42 44 48 47 40 48 56 55 55 56 58 58 56 55

GFSSW_sfc_temp_033.txt.gz
Temp
62 62 63 64 63 64 64 64 64 64 64 64 65 65 65 66 66 78 78 80 79 72 71 82 82 82 81 77 78 77 69 68 70 68 72 75 72 74 75 75 73 75 75 71 74
62 61 62 63 63 63 64 64 64 63 63 64 64 64 65 65 81 80 77 74 73 72 81 80 79 79 78 76 76 73 69 71 75 76 73 75 74 76 69 71 72 72 74 69 70
61 61 60 61 62 63 63 63 63 63 63 63 63 64 64 69 79 82 73 73 73 74 82 83 82 79 75 77 75 74 69 75 75 76 74 73 73 76 71 70 76 75 77 68 67
61 60 60 60 61 62 62 63 63 63 63 63 63 63 64 81 69 79 71 72 72 82 81 80 78 73 72 70 76 67 74 74 73 73 70 69 75 71 72 75 80 82 83 73 67
61 60 60 59 60 61 62 62 63 62 62 63 63 63 74 77 79 78 70 71 80 79 79 78 76 76 71 75 72 68 74 73 73 70 69 72 68 71 73 80 82 79 74 74 69
61 60 60 59 60 61 61 62 62 62 62 63 63 63 77 70 79 82 79 77 82 80 79 79 78 78 74 72 70 72 71 72 72 70 69 65 69 68 75 80 79 78 72 72 72
61 60 60 60 60 60 60 61 61 61 62 63 64 74 76 77 82 81 79 78 77 80 77 77 78 74 74 71 72 69 64 73 71 69 67 67 62 64 75 75 74 75 75 73 73
60 60 60 60 59 59 60 61 61 61 62 64 65 77 74 76 83 77 79 76 78 78 78 76 77 74 72 71 69 65 67 62 73 68 66 65 62 76 82 76 71 74 76 73 73
60 59 59 59 59 59 59 60 60 63 65 66 72 76 73 71 73 79 80 76 76 76 75 75 74 71 67 66 65 68 61 65 69 68 65 62 64 75 76 73 71 75 77 78 75
59 59 59 59 59 59 59 61 65 64 70 75 77 69 74 71 72 74 77 77 73 72 70 70 71 66 67 66 56 63 65 67 65 68 64 61 59 70 75 74 73 74 75 76 78
59 59 59 59 59 60 63 75 74 71 71 73 73 73 70 70 72 70 74 72 73 70 64 68 63 60 68 70 68 66 63 61 67 71 62 62 62 67 72 72 71 73 75 76 76
60 59 60 59 59 60 65 70 62 61 62 73 71 69 70 71 67 68 73 67 65 61 68 61 58 68 72 69 64 64 60 59 66 68 58 60 59 65 68 69 70 72 73 75 77
59 59 59 59 60 63 67 62 64 64 60 68 68 68 70 68 67 69 68 68 63 62 65 59 67 64 63 62 57 59 57 59 60 65 58 54 53 59 66 69 70 72 73 74 74
59 59 59 59 60 64 64 62 65 65 57 63 61 63 62 65 60 64 69 67 63 60 64 63 68 63 61 57 61 53 64 62 58 54 50 58 47 60 66 68 70 70 72 76 78
59 59 59 59 60 63 61 64 64 63 42 61 58 65 62 61 59 58 64 63 59 60 59 60 59 54 54 58 62 57 55 55 55 52 52 53 48 56 63 61 62 66 71 75 72
59 59 58 62 64 63 63 64 62 55 42 57 60 55 55 57 56 57 59 64 61 58 58 58 58 58 60 54 57 55 54 53 52 51 41 54 52 53 59 58 63 67 69 69 66
58 58 58 65 62 64 64 62 52 45 59 56 57 54 56 56 55 54 52 51 51 47 50 57 56 59 56 53 52 52 52 46 44 42 41 59 52 57 65 67 67 68 71 69 65
58 57 57 63 68 64 62 56 41 54 57 58 56 54 52 58 56 54 53 51 56 55 53 52 50 54 55 56 58 50 54 46 36 39 45 50 45 56 70 71 70 70 69 65 62
57 55 54 61 63 62 57 43 49 56 61 57 53 52 54 55 55 54 54 56 60 56 50 52 53 49 52 52 57 50 44 54 44 38 39 50 57 66 63 64 64 63 60 59 62
54 52 52 58 59 53 43 45 55 62 61 59 52 58 53 58 51 52 56 62 58 60 63 59 48 55 44 50 49 50 52 43 44 33 34 47 49 52 58 62 61 60 60 63 63
53 47 55 56 52 44 33 38 52 61 60 55 55 55 58 57 59 56 56 62 62 60 60 58 53 49 46 44 50 43 44 45 45 46 38 36 46 64 60 63 65 62 60 62 64
51 42 52 54 41 40 34 44 49 52 55 55 57 54 55 57 56 55 55 61 65 56 49 54 46 44 51 59 53 54 52 51 41 40 44 42 43 57 61 63 61 61 61 65 64
48 48 50 52 38 36 39 42 46 47 48 46 45 52 55 49 43 51 55 62 64 54 50 48 38 34 41 46 44 44 49 50 51 48 40 37 42 61 65 63 61 61 64 63 64
47 41 42 44 48 44 39 42 42 51 48 49 45 48 45 44 49 45 46 56 55 55 51 51 41 36 34 45 53 43 45 47 45 39 40 42 46 55 59 60 63 65 66 67 67
45 43 45 35 38 42 44 44 42 42 50 52 45 44 41 38 41 40 45 49 51 50 47 47 34 39 41 46 47 44 45 46 43 44 40 45 46 53 58 61 63 65 64 63 63
39 41 42 40 44 40 41 40 40 45 47 46 42 46 47 39 43 42 43 43 43 44 44 44 31 36 34 42 42 38 43 44 44 46 47 46 45 57 60 61 60 60 61 60 60
45 44 36 36 38 38 38 42 42 47 49 52 50 45 44 45 50 53 54 53 41 39 36 36 33 31 28 37 37 30 37 40 43 48 48 40 48 57 56 57 58 60 61 59 59

GFSSW_sfc_temp_036.txt.gz
Temp
62 62 62 63 63 64 64 64 64 64 64 64 65 64 65 65 66 73 74 78 77 72 70 79 78 78 77 72 71 69 56 55 61 60 62 67 63 67 64 61 63 67 62 62 66
61 61 61 61 62 63 63 64 63 63 63 63 64 64 64 65 74 75 76 73 72 71 78 75 75 75 69 70 68 61 55 61 67 68 63 67 65 65 60 62 62 64 63 65 63
61 61 60 60 60 62 63 63 63 63 63 63 63 63 64 66 72 76 72 73 72 72 79 79 78 75 67 69 67 64 58 66 69 67 68 66 65 68 62 59 64 64 65 61 59
61 61 60 60 61 61 62 62 63 63 62 62 63 63 64 74 62 75 71 72 72 77 78 76 74 66 64 64 70 59 68 69 67 66 63 61 66 64 65 66 69 65 69 62 59
61 61 60 60 60 61 61 62 62 62 62 62 63 63 70 71 73 74 69 70 75 76 75 73 70 68 63 67 67 62 64 69 68 65 62 65 62 61 63 68 72 72 67 61 61
61 61 60 60 60 60 61 61 62 62 62 62 63 62 71 64 77 78 76 72 77 75 74 74 71 70 66 66 63 63 64 65 67 66 64 60 59 61 63 68 68 69 64 63 62
60 60 59 59 60 60 60 61 61 61 61 63 64 70 71 70 79 78 76 73 74 74 72 74 72 66 67 63 67 62 56 62 64 64 60 60 54 56 66 66 66 66 66 64 64
60 59 59 59 59 60 60 60 61 61 62 64 64 72 66 74 77 75 77 72 74 75 72 72 70 67 63 64 63 56 56 50 62 63 59 58 49 62 68 66 62 63 63 64 64
59 59 59 59 59 59 59 60 60 62 65 65 66 69 66 70 71 76 75 72 72 71 69 74 67 62 61 54 52 56 48 52 58 63 56 54 50 62 65 61 60 61 63 65 65
59 59 59 59 59 59 60 60 63 63 65 73 75 63 69 67 68 72 72 72 68 66 65 63 60 55 54 53 45 49 51 55 54 57 55 50 51 59 63 62 62 64 65 65 67
60 59 59 59 60 60 60 65 66 62 67 65 66 67 69 68 69 67 71 68 67 63 55 59 52 50 55 59 60 59 55 53 59 64 55 54 55 59 64 61 61 65 66 66 67
60 59 59 59 60 61 61 64 57 56 52 68 68 68 69 69 63 65 70 60 59 53 58 54 49 59 62 61 57 54 50 52 58 58 54 52 52 57 60 62 64 64 65 66 63
60 59 59 59 60 62 62 58 63 63 52 62 66 66 65 65 61 62 64 62 57 53 56 53 57 62 58 55 54 54 50 50 51 56 48 46 43 49 55 61 63 64 65 66 62
59 59 59 59 59 63 60 63 64 62 46 57 58 61 61 61 56 63 65 61 58 54 55 55 62 60 57 54 56 49 56 54 52 46 39 48 36 49 53 57 58 61 62 63 61
59 59 59 60 59 61 60 63 62 57 34 58 55 63 61 57 55 55 61 57 54 53 54 52 52 50 49 53 56 50 50 47 46 42 40 42 37 45 55 52 58 59 62 64 61
59 59 58 60 61 63 63 61 58 47 34 54 56 53 52 54 54 54 54 58 57 53 53 54 53 51 52 50 50 51 46 46 42 40 30 42 42 41 47 52 55 58 63 60 56
58 58 57 65 59 62 61 57 45 38 57 52 51 54 52 51 52 51 48 45 44 39 41 49 51 51 52 46 46 45 42 32 29 26 31 47 41 50 52 54 58 60 65 56 55
57 57 55 62 65 62 58 50 36 50 53 57 54 52 49 54 51 49 47 44 49 47 43 42 43 50 50 49 46 42 44 30 24 25 40 40 33 45 59 62 60 63 57 54 52
57 55 53 56 58 57 47 33 41 51 57 55 55 47 48 51 52 48 46 47 52 51 44 44 44 45 47 48 51 43 37 45 36 25 26 40 44 52 54 56 58 56 54 51 51
54 52 52 58 56 50 39 35 44 54 56 54 46 52 46 51 46 47 47 53 52 54 57 50 43 48 42 45 43 42 45 35 33 22 21 40 37 40 46 51 52 53 52 52 52
53 47 55 58 54 44 33 35 46 54 55 50 46 46 49 49 52 50 50 54 56 54 56 51 47 43 41 37 41 37 36 39 41 33 30 33 37 49 53 53 54 54 53 53 54
51 42 53 55 42 41 37 41 48 49 52 49 47 44 43 48 45 43 46 52 58 52 46 49 43 35 45 47 45 47 45 45 35 34 32 37 41 49 53 53 55 54 56 55 54
45 48 51 52 39 39 39 42 46 47 48 45 44 45 49 44 36 39 43 54 56 51 47 46 35 29 32 43 39 40 43 47 47 41 37 33 39 59 57 50 52 52 52 53 54
44 40 43 45 48 44 43 39 40 48 46 49 47 48 43 40 45 38 40 47 50 52 49 46 36 33 30 39 45 38 40 43 42 36 37 38 42 51 55 57 60 62 55 54 55
43 40 45 37 37 40 43 45 42 40 48 50 44 45 42 38 40 39 42 45 49 50 44 39 31 33 35 38 39 38 40 41 37 40 36 41 42 49 54 56 59 61 60 57 57
38 38 39 36 38 37 39 38 39 43 46 44 43 46 46 40 42 40 44 43 42 41 43 39 31 32 31 35 35 33 37 39 39 38 40 41 40 53 56 58 57 59 59 56 57
42 41 36 35 35 34 35 37 36 35 40 45 44 45 44 45 50 51 52 52 49 43 39 34 32 30 27 33 32 28 33 36 39 43 42 35 44 53 52 54 55 57 58 56 56

GFSSW_sfc_temp_042.txt.gz
Temp
62 62 62 63 63 63 63 63 63 63 63 63 64 63 63 64 64 64 64 73 72 70 69 69 66 66 65 61 62 58 48 44 49 51 55 57 56 59 59 56 57 62 57 57 56
62 62 62 62 62 62 62 63 63 63 63 63 63 63 63 64 63 64 73 73 72 70 69 67 63 64 59 58 59 53 45 50 56 56 56 58 58 57 55 55 56 57 54 54 56
62 62 62 62 62 62 62 62 62 62 62 62 62 63 62 61 62 66 71 72 72 70 70 69 67 65 56 57 56 53 50 55 60 61 60 58 55 59 55 55 58 59 57 52 51
61 61 61 61 61 62 62 62 62 62 62 62 62 62 62 61 55 68 70 71 71 70 69 66 63 58 55 55 59 51 58 59 60 61 58 57 57 56 57 65 63 62 59 52 51
60 60 60 60 61 61 62 62 62 62 62 62 62 62 61 57 62 68 68 69 67 68 67 65 61 58 54 54 55 53 56 60 61 60 58 58 58 56 56 60 62 61 57 53 54
60 60 60 60 60 61 61 62 62 62 61 62 62 62 59 54 69 68 67 65 66 65 64 64 62 62 57 57 54 55 57 58 58 59 57 57 55 55 62 57 59 60 58 54 56
60 60 59 59 60 60 61 61 61 61 61 62 63 62 58 63 68 66 67 65 65 64 62 62 62 60 57 55 58 56 54 54 58 57 56 55 54 51 65 57 59 59 56 56 57
60 59 59 59 60 60 61 61 61 61 61 62 63 58 57 67 64 66 66 65 66 66 64 64 63 60 55 58 56 49 47 44 53 53 55 58 51 58 59 56 57 56 56 56 56
60 59 59 60 60 60 60 61 61 61 62 64 56 56 56 67 64 68 67 64 64 64 64 69 62 55 55 47 44 41 39 41 48 54 51 50 48 60 58 54 55 55 54 57 59
59 59 59 60 60 60 60 61 60 61 62 64 66 54 60 60 63 64 65 66 61 61 59 56 52 47 45 44 38 38 38 42 45 51 47 45 47 55 58 53 53 54 54 53 55
60 59 60 60 60 61 57 56 56 55 55 57 57 57 60 62 63 61 64 63 60 55 48 50 45 43 51 49 53 44 42 41 48 53 47 47 50 54 59 55 53 57 59 60 56
60 60 60 60 60 60 55 51 49 50 45 56 56 57 61 61 57 58 63 56 52 46 48 44 42 52 51 50 47 46 45 45 50 53 47 48 49 52 54 59 61 60 60 59 63
60 59 59 59 60 57 52 51 56 53 42 51 55 56 58 60 55 57 60 54 49 46 46 47 50 53 51 48 46 45 43 46 45 47 45 43 46 44 50 58 60 62 62 62 61
59 59 59 60 57 52 51 55 55 52 38 47 51 54 56 56 50 56 56 54 48 47 45 44 53 51 46 45 48 44 49 48 44 39 38 42 38 41 48 51 53 57 59 61 63
59 59 59 60 51 52 55 55 52 49 29 50 50 58 54 52 49 51 54 52 45 46 45 46 45 44 43 49 48 49 47 46 41 36 34 36 34 40 47 46 53 60 58 61 63
58 59 59 58 53 54 55 51 51 41 29 46 49 46 47 47 47 48 49 52 49 45 44 47 47 48 48 47 47 46 42 40 35 34 28 38 37 47 40 48 50 57 60 63 66
58 57 56 59 55 58 57 53 40 32 47 44 44 45 44 44 44 44 43 41 41 37 36 41 43 46 49 43 42 44 39 30 25 23 29 40 35 48 50 52 52 57 61 63 66
57 57 55 58 57 57 52 46 33 43 43 48 47 44 43 46 45 43 39 38 41 41 36 36 40 44 47 48 43 39 42 30 22 29 39 33 31 47 52 58 58 58 61 57 52
57 55 54 55 56 54 48 37 38 42 48 48 48 42 40 44 46 41 38 38 43 44 40 35 38 43 44 44 49 39 36 45 33 20 22 36 43 52 48 49 50 51 50 50 51
52 52 52 56 56 51 42 41 42 48 49 48 41 44 36 40 41 39 39 43 43 45 49 44 38 41 40 43 41 41 43 33 31 21 20 32 35 43 48 51 57 51 51 52 49
49 46 50 57 54 45 37 40 46 50 51 46 45 44 43 40 42 44 46 44 47 46 46 46 42 39 37 37 38 36 36 36 37 33 32 31 37 56 51 47 48 49 50 47 48
45 39 51 55 43 42 40 45 48 45 49 48 47 47 45 47 44 44 43 46 48 47 42 46 39 32 38 44 43 42 40 41 35 32 32 37 38 56 54 53 49 48 50 49 49
42 42 52 51 37 39 43 43 46 45 46 45 44 46 48 43 38 43 45 52 52 49 44 43 34 31 30 35 42 38 43 44 43 40 34 29 35 57 57 56 54 51 56 56 54
41 33 43 45 45 40 41 41 41 45 44 46 44 46 41 39 45 40 42 48 48 49 49 47 39 33 29 38 41 36 39 42 42 34 35 36 39 47 52 53 56 57 59 60 61
39 34 37 35 39 40 41 41 38 39 45 45 41 42 39 35 36 36 39 38 42 45 43 43 33 35 36 39 41 40 40 41 40 41 35 38 38 45 50 53 55 56 56 55 54
34 33 36 34 35 36 37 36 36 37 38 37 36 32 34 31 32 30 32 33 32 35 35 35 31 32 31 35 34 33 38 39 40 40 41 41 39 50 52 54 53 54 54 53 54
36 40 35 33 30 29 30 36 35 35 37 38 34 31 30 33 35 36 38 36 34 31 30 31 30 28 25 34 32 28 34 37 38 41 40 34 42 48 46 49 50 51 45 41 41

GFSSW_sfc_temp_048.txt.gz
Temp
63 63 63 63 63 63 63 63 63 63 62 63 63 63 63 63 64 60 61 70 69 70 69 65 64 62 61 58 57 53 46 41 45 45 52 52 51 55 55 53 52 59 55 54 50
62 62 62 62 62 62 63 63 63 62 62 62 62 63 63 63 59 60 70 72 71 70 66 64 60 60 56 54 55 51 43 48 52 50 53 54 53 54 52 53 53 56 56 51 50
62 61 62 62 62 62 63 63 62 62 62 62 62 62 62 59 60 65 72 72 70 70 66 64 62 61 52 52 52 49 48 49 54 56 55 55 53 55 51 53 55 59 60 51 49
61 61 61 61 62 62 62 63 62 62 62 61 62 62 62 57 54 64 70 71 70 67 65 62 59 55 51 51 54 47 53 54 56 56 53 53 54 52 55 64 61 61 60 52 50
60 60 60 60 61 62 62 62 62 62 61 61 62 62 58 55 62 64 67 67 65 65 63 60 56 54 50 49 50 48 51 55 54 55 54 54 53 53 55 63 59 59 56 54 51
60 60 60 60 60 61 62 62 62 62 61 61 62 61 56 53 65 64 63 63 63 62 60 60 58 58 53 52 51 50 51 53 54 55 54 54 58 52 57 56 58 56 55 54 53
60 60 60 60 60 61 61 61 62 61 61 61 61 59 53 60 63 62 64 61 62 62 59 59 60 56 53 49 53 51 49 50 51 51 52 50 51 48 61 53 57 56 53 55 53
60 59 59 60 60 60 61 61 61 61 61 61 61 55 55 62 59 62 61 60 60 61 61 61 60 56 52 53 52 45 42 42 49 49 50 53 49 61 59 51 57 56 54 51 54
60 59 59 60 60 60 60 61 61 62 63 62 54 54 55 63 59 61 60 60 60 59 60 66 59 52 50 44 42 39 37 38 44 52 49 47 44 54 54 50 54 56 60 56 58
60 59 59 60 60 60 60 61 61 61 60 61 62 51 58 57 58 60 58 61 57 57 56 54 49 45 41 41 35 38 34 37 39 48 43 43 43 50 58 51 54 57 59 62 63
60 60 60 60 60 61 57 56 55 53 53 55 54 54 56 57 59 57 58 59 56 53 45 46 42 40 47 46 44 40 38 37 45 51 42 45 48 50 55 55 57 59 60 59 59
60 60 60 60 60 61 54 50 47 48 44 54 53 54 55 57 54 54 59 53 50 46 44 41 38 48 47 45 44 42 39 40 47 51 43 43 45 52 54 54 59 60 61 62 62
59 59 59 60 60 56 50 49 52 50 41 49 51 51 54 57 52 53 58 51 47 43 43 42 46 49 46 43 42 38 38 43 40 43 42 39 39 42 48 52 57 58 61 61 57
59 59 60 60 56 51 50 53 52 50 37 43 48 50 52 52 47 52 53 51 44 44 42 41 45 46 40 43 43 37 45 44 41 35 31 41 33 40 49 49 49 54 57 55 55
58 59 60 60 55 53 53 53 50 49 31 47 47 56 51 48 47 48 51 49 42 42 42 43 41 39 40 43 44 41 42 40 36 33 31 30 30 35 43 44 50 54 56 57 56
58 58 58 57 55 56 56 55 54 42 32 43 46 44 44 45 45 46 46 50 47 42 40 43 43 45 46 44 45 43 39 36 32 32 26 35 35 44 40 44 45 50 54 54 55
56 57 57 59 54 56 56 53 40 33 46 41 41 43 41 41 43 42 41 39 40 35 34 37 41 43 44 39 40 40 36 28 24 22 28 33 32 46 50 53 50 52 55 55 51
56 55 56 57 56 56 54 46 33 40 42 49 46 42 41 45 44 40 36 37 40 37 33 34 37 42 44 45 42 37 39 30 22 27 35 33 29 45 49 51 51 51 50 48 49
56 55 54 55 56 55 49 37 37 42 48 46 47 42 43 44 45 38 36 38 42 43 40 34 35 40 41 42 46 35 34 43 34 29 25 36 38 49 56 54 48 49 46 48 47
49 50 51 56 56 52 44 41 39 48 49 48 40 42 34 39 41 38 40 40 42 44 46 43 37 42 39 38 38 40 41 32 30 22 22 31 37 39 49 52 48 49 49 48 48
47 42 48 55 55 46 38 40 43 50 51 46 42 41 40 38 42 42 41 42 43 44 45 43 39 40 38 35 39 34 33 34 35 32 29 28 34 51 51 54 51 47 46 49 50
43 36 49 55 43 43 39 44 45 45 48 47 46 44 41 40 40 42 39 43 47 46 41 43 37 30 37 40 42 40 40 41 34 31 35 34 35 54 50 53 54 54 48 48 49
39 39 48 50 35 37 41 41 43 42 44 44 43 44 46 41 36 39 41 44 44 43 41 41 33 29 29 34 34 32 36 39 39 39 32 28 33 53 52 50 51 39 39 40 40
39 32 40 45 44 40 39 40 40 46 44 45 43 44 41 39 42 38 39 41 40 42 43 42 34 32 28 33 33 31 31 33 31 25 27 29 31 37 40 42 38 37 38 38 39
36 33 37 33 35 38 40 40 37 36 43 45 41 41 39 34 36 36 34 34 38 39 37 35 25 30 30 31 32 30 29 31 30 33 27 31 30 37 30 28 31 36 37 36 36
32 33 36 33 35 33 35 36 35 38 40 38 37 36 33 32 31 28 27 29 28 31 30 33 21 26 22 29 29 27 31 32 32 33 33 33 33 28 31 32 32 33 33 32 33
34 36 35 31 29 27 28 33 31 34 34 34 31 30 28 31 32 32 33 32 31 28 27 26 20 10 17 28 24 17 27 30 31 30 24 22 22 26 26 28 32 31 31 31 34

GFSSW_sfc_temp_051.txt.gz
Temp
63 63 63 63 63 63 63 63 63 63 62 63 63 63 63 63 63 59 61 70 68 70 69 66 65 63 63 60 60 57 49 45 50 49 55 59 58 61 61 62 61 63 63 64 55
62 62 63 63 63 63 63 63 63 62 62 62 62 63 63 62 58 59 70 72 71 70 66 64 61 61 58 57 57 54 47 50 54 54 56 58 58 60 60 60 59 61 62 56 54
62 62 62 62 62 63 63 63 63 62 62 62 62 62 62 59 60 65 72 72 70 70 66 64 63 61 55 55 55 52 50 52 56 57 56 56 55 60 57 56 60 61 66 57 54
61 61 61 61 62 62 63 63 63 62 62 61 61 62 62 57 55 63 69 71 70 67 66 62 60 56 53 52 55 50 54 53 57 56 55 55 56 56 58 66 65 64 66 59 55
60 60 60 61 61 62 62 63 62 62 62 61 61 62 59 55 62 62 67 67 65 65 64 60 57 55 52 51 52 50 51 55 55 55 54 54 54 55 57 65 62 60 59 60 58
60 60 60 60 60 61 62 62 62 62 61 61 61 61 57 52 63 63 62 63 62 62 60 61 59 58 54 53 53 52 52 53 54 55 54 53 56 53 58 59 60 57 59 57 57
60 60 60 60 60 61 61 62 62 61 61 62 61 59 54 60 62 61 63 60 61 62 59 58 60 58 55 51 54 51 50 51 51 51 52 51 51 48 61 57 58 58 57 56 57
60 60 60 60 60 61 61 61 61 62 61 61 61 54 56 61 59 61 61 59 60 61 61 60 60 57 54 54 52 47 45 43 51 49 52 54 49 59 60 55 59 59 60 57 58
60 59 60 60 60 60 60 61 61 62 62 61 54 53 55 61 58 60 59 59 59 59 60 64 59 52 51 46 43 42 39 40 45 51 50 49 46 55 56 55 57 62 63 63 64
60 59 60 60 60 60 60 61 62 61 59 60 61 51 57 56 58 59 58 60 57 56 55 54 49 45 42 43 37 40 37 39 40 51 45 45 44 51 57 52 57 60 62 62 62
60 60 60 60 60 61 57 55 55 52 52 55 54 54 55 56 58 56 58 58 56 53 46 46 43 41 47 45 44 42 40 39 44 52 44 46 47 52 56 56 56 59 61 61 61
60 60 60 60 60 61 54 51 47 48 45 53 52 53 54 55 52 53 59 54 50 46 45 42 39 48 47 44 43 41 39 40 44 48 43 43 45 52 55 56 58 58 59 60 59
59 59 60 60 60 56 50 50 51 51 41 48 50 49 51 56 51 52 56 50 47 42 43 42 46 48 46 43 41 38 38 40 40 42 42 39 40 43 50 50 53 57 58 57 57
59 59 60 60 56 50 49 52 51 50 37 43 46 49 51 50 45 51 52 50 44 43 42 41 45 45 41 42 42 37 43 43 40 36 34 42 33 41 51 54 56 55 54 56 56
58 59 59 60 56 54 56 52 50 48 30 46 45 54 50 47 46 48 50 48 42 42 42 43 41 40 39 43 44 42 42 40 38 35 32 33 30 40 44 46 51 53 56 57 54
58 58 58 57 56 56 56 55 53 40 32 42 45 44 43 45 44 45 46 49 45 42 39 42 42 44 45 43 44 43 40 37 33 32 27 35 34 39 41 46 48 52 55 57 55
56 57 57 59 55 55 54 53 41 34 45 40 40 42 41 41 42 41 40 38 40 34 33 38 40 42 44 40 40 40 36 30 27 25 30 35 32 42 47 51 50 53 54 57 52
56 57 55 57 56 55 54 46 32 40 42 46 44 42 41 45 43 39 37 37 40 37 34 34 35 41 43 45 43 37 39 33 24 28 35 31 33 46 49 51 53 50 50 50 51
56 55 54 55 56 55 48 37 39 39 46 45 44 40 40 44 46 42 40 40 44 44 39 32 33 41 41 43 46 36 35 43 35 21 23 37 38 50 54 50 48 48 47 49 51
50 50 50 56 56 52 45 40 41 46 48 47 38 40 32 38 40 38 38 38 40 44 47 43 35 41 39 40 38 40 42 32 30 23 25 34 36 40 48 48 47 46 46 44 43
47 43 49 55 55 47 38 40 42 49 51 45 42 38 37 36 41 41 41 41 42 41 42 42 40 37 38 36 36 35 34 35 35 34 28 26 34 51 48 45 38 37 38 39 39
44 37 48 54 43 43 37 42 45 42 46 46 44 43 40 41 41 40 39 42 44 44 38 43 36 30 35 39 43 42 40 39 33 28 32 33 33 52 40 44 42 40 39 39 39
39 39 48 51 35 37 39 40 41 39 42 42 41 43 42 39 36 41 41 41 43 42 40 40 33 27 28 32 33 34 36 34 34 31 28 25 31 43 45 46 38 33 36 37 37
38 32 39 44 44 39 38 38 38 43 43 44 43 44 40 38 41 38 37 40 40 41 42 42 34 32 28 31 31 30 32 32 30 24 25 26 28 37 42 31 32 34 36 36 36
36 31 36 32 35 37 40 38 35 34 42 43 39 39 38 34 35 36 36 34 38 38 37 34 27 31 32 30 31 28 27 29 26 28 23 28 29 36 28 28 31 35 36 34 34
32 31 35 32 35 32 36 33 35 37 38 36 36 37 36 32 33 29 29 29 28 30 28 29 22 25 22 30 29 26 29 30 30 30 29 30 28 28 31 32 31 34 34 32 34
32 35 31 28 28 27 29 31 29 31 31 33 31 30 29 30 31 31 33 32 31 28 27 27 22 18 17 26 22 13 25 30 30 23 24 21 20 24 26 30 31 31 32 31 33

GFSSW_sfc_temp_054.txt.gz
Temp
63 63 64 64 63 64 64 64 63 63 63 63 63 63 63 63 64 69 72 78 76 70 72 77 78 76 76 72 71 70 67 63 64 61 70 72 71 73 75 75 73 76 78 80 70
62 62 63 63 63 63 63 63 63 63 62 62 63 63 63 63 69 70 76 72 71 70 78 77 74 74 74 70 70 70 64 67 71 72 71 71 71 74 72 74 74 75 78 74 68
62 62 62 62 62 63 63 63 63 62 62 62 62 62 62 64 72 77 72 72 70 73 80 77 76 74 69 69 69 66 65 70 70 71 70 69 68 72 71 69 76 76 79 80 71
61 61 61 62 62 63 63 63 63 63 62 62 62 62 62 70 67 76 69 71 70 78 78 74 73 69 67 65 68 61 67 67 68 67 66 65 70 68 70 74 81 81 80 80 74
61 60 61 61 61 62 63 63 63 62 62 62 62 62 68 70 74 72 67 69 75 76 76 73 71 69 65 66 64 62 67 67 67 65 66 67 65 67 69 77 80 79 73 74 76
60 60 60 60 61 62 62 62 63 62 62 62 62 62 72 64 72 73 70 70 75 75 72 74 73 72 67 65 64 64 63 65 66 67 67 63 68 63 73 78 75 74 74 76 75
60 60 60 60 61 61 62 62 62 62 62 63 62 66 69 71 73 73 72 72 72 75 70 71 73 70 68 63 65 63 60 66 67 65 63 63 61 59 74 74 72 74 77 76 75
60 60 60 60 60 61 61 61 61 62 62 62 62 68 69 69 73 70 72 70 71 73 72 72 72 69 67 66 64 61 60 57 65 60 63 63 59 72 76 69 72 76 78 77 78
60 60 60 60 60 60 61 61 61 62 62 62 66 68 67 66 67 69 72 69 69 70 70 70 71 64 63 60 58 57 55 57 58 63 62 60 59 68 71 71 69 71 73 75 76
60 60 60 60 60 60 61 62 62 63 64 66 68 64 67 65 66 66 69 69 67 67 66 65 64 61 59 59 52 57 55 56 54 63 60 58 57 63 68 66 67 69 72 72 73
60 60 60 60 60 61 64 68 66 64 65 66 66 64 64 66 67 64 67 66 66 64 58 58 57 54 61 62 62 57 54 54 58 63 57 56 58 61 66 67 66 67 70 71 72
60 60 60 60 60 61 65 64 59 60 57 61 59 59 61 64 61 62 67 63 60 57 54 53 51 60 57 55 53 53 51 52 59 60 52 57 54 60 64 65 67 68 69 70 71
60 59 60 60 60 64 61 59 60 61 55 56 57 57 60 63 59 60 63 61 59 52 53 55 59 56 54 54 51 52 49 52 52 54 57 52 56 57 66 63 66 67 68 70 69
60 59 60 60 60 61 60 59 59 61 52 53 54 57 59 60 55 60 61 60 56 53 53 53 55 53 50 50 54 47 55 52 48 47 47 53 45 58 62 64 66 66 70 71 69
59 59 60 60 62 61 59 60 59 58 39 53 54 64 59 56 56 56 60 60 53 52 52 52 49 48 47 51 53 52 51 49 47 47 44 49 43 57 56 57 61 65 69 71 68
58 58 58 57 57 59 57 56 58 48 36 49 54 53 53 54 53 55 56 60 56 52 52 53 53 53 56 52 52 51 50 48 45 46 39 51 47 52 57 58 61 66 68 69 65
56 58 57 59 55 57 57 55 41 36 51 47 49 52 51 51 51 53 51 51 51 46 47 51 53 52 53 51 50 51 48 41 40 38 40 47 42 50 58 61 64 62 61 59 58
54 57 56 58 59 59 59 50 34 41 45 52 51 49 49 52 51 49 49 50 51 50 48 44 42 49 52 54 53 49 50 41 29 34 41 46 41 52 62 64 61 56 52 52 52
56 55 56 58 57 57 51 38 41 45 51 49 48 47 49 49 50 49 48 49 52 51 46 46 45 51 48 53 55 50 43 52 41 40 36 46 52 59 60 54 51 51 52 50 50
52 53 55 59 58 53 45 41 43 52 52 51 45 49 43 46 46 46 48 50 50 50 53 50 40 52 52 51 50 49 50 40 41 30 30 42 44 47 54 47 47 47 48 49 48
51 46 53 56 56 48 39 41 46 51 52 47 45 45 44 41 46 45 47 51 52 47 51 48 45 45 47 45 47 44 42 43 41 41 33 32 41 58 46 46 46 44 44 44 44
47 41 52 55 44 44 41 44 46 45 48 47 48 48 46 46 44 44 43 49 52 50 44 48 37 34 42 52 52 49 47 47 36 35 40 36 38 59 53 50 42 39 41 42 43
43 44 52 51 38 39 43 43 46 45 47 46 46 47 49 44 38 45 46 47 48 47 44 43 34 31 35 40 42 39 42 42 43 37 30 28 34 50 51 50 40 39 40 39 41
42 37 42 45 47 43 41 40 41 46 46 47 46 47 44 40 44 40 42 45 43 42 40 41 35 32 29 37 39 32 35 36 31 26 29 29 33 40 43 40 38 39 41 41 41
40 37 40 35 38 40 43 41 38 38 44 46 41 41 40 35 37 37 39 35 37 37 36 35 29 33 33 30 30 30 29 30 27 28 23 29 30 38 36 33 36 39 40 40 40
36 36 39 37 37 37 37 38 37 40 41 39 39 38 38 33 35 32 32 33 34 33 31 31 26 27 24 32 30 26 30 33 32 33 33 33 32 34 35 37 37 38 38 38 39
37 40 37 32 33 33 34 36 34 36 33 36 35 33 32 35 35 35 36 35 34 31 30 28 27 24 21 30 25 20 31 35 35 38 33 27 31 30 31 34 36 37 38 38 39

GFSSW_sfc_temp_057.txt.gz
Temp
63 63 64 64 64 64 64 64 64 63 63 63 64 63 63 63 64 72 75 79 79 70 72 82 82 82 81 77 78 78 68 67 70 69 73 78 75 81 81 78 82 82 81 84 78
63 63 63 63 63 63 64 64 63 63 63 63 63 63 63 63 75 77 77 74 72 71 82 79 78 79 78 76 75 72 67 70 78 78 75 78 76 77 77 77 79 81 84 85 79
62 62 62 63 63 63 63 63 63 63 63 63 63 63 62 66 74 80 72 72 70 73 84 85 82 78 73 75 75 73 67 77 77 77 76 73 74 79 73 71 79 80 83 86 86
62 62 62 62 62 63 63 63 63 63 63 63 62 62 62 75 68 79 70 71 70 82 81 79 77 72 70 69 77 65 73 73 74 74 70 69 76 72 74 75 82 83 84 83 82
61 61 61 61 62 62 63 63 63 63 62 62 62 62 70 74 77 78 69 70 78 79 78 77 75 74 69 73 72 66 71 73 74 71 70 72 69 70 73 80 83 84 83 81 80
61 60 60 61 61 62 62 63 63 62 62 63 63 61 73 67 77 79 76 75 80 78 78 79 76 78 71 70 69 73 68 69 71 71 72 68 69 72 75 82 82 80 80 81 81
61 60 60 60 61 61 62 62 62 62 62 63 63 70 72 74 79 78 76 77 78 79 76 79 78 73 73 68 73 68 62 69 71 73 69 68 63 66 77 80 78 79 82 83 83
61 60 60 60 60 61 61 62 62 62 62 62 63 73 70 73 80 74 77 75 77 78 76 76 77 73 69 72 68 64 66 59 69 67 68 66 60 73 78 75 74 77 79 80 82
60 60 60 60 60 60 61 61 62 62 62 63 68 71 70 68 71 74 76 73 74 75 74 75 74 69 67 62 61 65 56 61 65 71 67 63 60 70 76 73 71 74 77 78 79
60 60 60 60 60 60 61 62 63 63 66 71 73 66 71 68 69 70 74 74 70 70 68 68 68 63 63 61 52 58 59 61 61 68 66 63 62 68 72 72 71 74 76 76 77
60 60 60 60 60 61 65 71 67 66 67 69 69 69 69 69 71 68 70 70 70 67 60 64 59 56 63 65 64 62 56 56 62 67 63 61 61 65 70 71 70 73 75 75 76
60 60 60 60 61 61 66 68 62 61 60 71 67 63 66 68 64 65 70 64 62 58 62 56 54 64 66 61 58 58 55 55 61 66 58 58 57 62 67 69 71 72 72 74 75
60 60 60 60 60 64 66 64 66 66 58 63 62 61 63 65 62 64 67 64 60 58 58 55 62 63 60 59 56 57 54 54 53 58 60 56 56 63 68 72 72 71 72 74 71
60 59 60 60 59 69 65 65 66 66 54 58 56 60 62 63 57 64 66 63 60 56 59 58 62 57 56 53 56 49 57 55 53 50 47 57 44 58 66 68 69 70 72 69 67
59 59 60 59 63 64 66 66 65 62 38 58 56 66 62 58 58 57 64 62 56 57 56 55 54 52 51 54 57 54 54 53 52 49 50 52 45 58 62 61 65 68 65 64 62
58 59 59 57 57 58 58 59 62 49 36 52 57 55 55 57 56 58 59 63 60 56 57 56 57 57 58 57 56 56 53 55 54 50 41 53 52 54 58 61 64 61 60 58 57
57 58 57 59 55 56 56 54 42 37 54 50 52 55 56 54 54 56 54 53 53 48 50 54 54 58 57 53 54 52 50 42 41 41 40 55 47 53 61 66 61 56 55 55 56
55 57 56 58 56 57 54 48 34 43 46 56 54 54 52 56 56 54 54 53 58 55 51 47 46 54 57 55 54 52 53 42 29 34 41 50 42 53 65 58 57 56 55 55 54
55 56 56 57 57 58 50 39 40 49 54 52 52 49 51 53 53 54 55 53 57 58 48 48 48 56 55 59 57 54 46 55 41 39 36 44 52 61 64 54 54 53 53 51 51
55 54 55 60 57 54 45 40 44 54 56 53 45 53 47 50 49 50 51 55 53 55 57 51 41 55 56 54 54 51 52 42 43 30 29 42 45 48 52 51 51 48 48 49 50
50 46 54 57 56 48 39 42 47 53 53 47 46 48 50 48 51 50 48 54 57 55 55 53 47 47 51 49 48 48 44 44 45 41 32 32 41 58 48 46 46 45 46 46 46
50 42 54 55 44 45 41 45 46 47 49 47 47 43 43 41 39 46 47 52 58 54 47 52 39 34 43 54 56 52 48 49 38 34 40 37 39 60 55 46 45 45 44 44 45
48 49 54 51 40 41 48 45 47 46 46 44 43 45 50 46 41 47 48 52 51 50 46 49 36 30 36 47 49 42 45 45 44 39 31 28 35 55 51 49 43 42 43 45 45
47 40 46 45 48 45 44 43 42 49 48 49 47 50 45 43 47 42 44 46 44 44 40 42 36 32 29 37 35 32 37 40 35 28 31 32 34 43 47 45 42 41 43 44 44
45 42 44 36 39 42 45 45 42 41 47 47 44 44 43 38 40 40 44 41 39 39 39 37 31 34 35 37 35 33 32 33 31 32 25 32 32 38 43 40 39 42 42 42 42
40 38 41 42 44 41 41 40 40 42 42 41 41 41 41 36 37 33 36 37 37 37 36 34 30 31 26 34 34 30 34 34 33 33 33 33 32 43 39 40 40 40 40 39 40
42 44 41 39 38 38 39 40 39 43 36 39 39 37 34 38 38 38 39 38 38 35 33 31 29 26 23 32 27 22 29 34 36 39 38 30 32 34 34 36 38 37 39 39 40

GFSSW_sfc_temp_060.txt.gz
Temp
64 64 64 64 64 64 64 64 64 64 64 64 64 64 63 64 64 68 71 76 77 70 70 79 78 77 76 72 71 69 55 54 60 62 62 69 64 68 70 64 68 72 67 69 71
63 63 63 64 64 63 64 64 64 63 63 63 63 63 63 63 69 73 74 74 72 71 77 75 73 74 68 69 68 60 54 59 68 67 65 69 66 67 65 66 67 69 74 75 69
62 62 63 63 63 63 63 64 63 63 63 63 63 63 62 62 69 74 71 72 71 72 79 80 78 74 66 69 66 63 56 66 69 68 67 65 65 69 64 62 66 67 70 69 70
62 62 62 62 62 63 63 63 63 63 63 63 63 62 62 70 61 74 70 71 70 77 78 75 72 65 63 62 70 60 67 68 67 68 64 62 66 63 65 68 72 72 73 71 71
61 61 61 61 62 62 63 63 63 63 62 62 63 62 67 68 72 75 69 70 74 74 73 72 69 67 61 65 67 61 64 68 67 66 64 66 62 62 64 71 73 74 73 69 69
61 61 61 61 61 62 62 63 63 62 62 63 63 61 67 62 76 79 75 71 77 74 73 73 70 69 65 64 61 64 62 63 65 65 65 62 62 62 66 69 71 72 70 70 70
61 61 60 60 61 61 62 62 62 62 62 63 63 66 68 68 77 77 75 73 74 75 71 74 73 65 65 61 64 63 56 61 64 65 62 61 56 58 67 69 68 69 69 70 71
61 60 60 60 60 61 61 62 62 62 62 63 63 68 63 71 73 73 75 72 74 74 71 71 71 66 63 65 62 57 56 48 60 62 57 60 49 64 68 66 66 66 66 68 69
60 60 60 60 60 60 61 61 62 63 63 63 64 65 63 69 69 72 73 70 71 71 70 74 67 62 61 52 49 53 45 50 56 63 59 56 50 61 67 65 66 64 65 66 67
60 60 60 60 60 60 61 61 64 63 64 70 71 61 66 65 67 69 70 70 66 65 64 62 60 53 52 50 41 47 48 52 50 59 59 54 52 60 65 64 64 61 64 63 65
60 60 60 60 60 61 62 67 62 59 64 64 65 66 68 68 68 66 68 66 66 61 53 57 50 47 53 56 56 51 50 48 54 60 54 53 53 57 64 63 61 61 61 62 63
60 60 60 60 61 61 61 63 60 59 54 67 68 65 66 66 61 63 67 59 58 52 56 49 45 57 60 58 54 51 48 48 53 58 52 51 51 57 60 61 60 59 61 60 58
60 60 60 60 60 61 64 62 66 64 53 61 63 62 62 63 59 61 63 60 55 52 54 49 55 60 56 53 52 50 47 48 47 51 51 47 46 51 61 61 63 63 60 58 55
60 59 60 60 57 66 62 64 65 63 48 55 54 58 60 61 54 63 64 59 56 51 53 52 55 53 51 50 51 44 50 49 47 42 37 49 32 48 56 56 59 56 54 53 52
59 59 60 59 59 61 62 65 63 58 34 56 54 64 60 55 55 54 60 57 51 52 50 49 49 47 47 51 53 48 49 47 46 40 38 42 34 45 52 52 50 50 51 50 50
58 59 59 58 57 57 58 58 58 44 33 50 54 52 52 54 54 55 55 58 55 51 52 51 52 51 52 53 52 52 46 46 44 40 30 41 41 42 47 48 47 49 49 49 49
58 58 57 59 54 53 54 54 41 36 54 47 49 53 52 51 52 52 49 47 45 39 41 48 49 51 53 46 48 45 41 31 29 27 29 45 38 44 53 53 50 47 47 47 47
57 57 56 57 54 54 54 46 33 42 46 55 53 53 49 53 52 51 49 46 51 49 43 40 39 48 51 49 45 43 44 31 24 25 30 39 31 44 48 50 50 49 47 46 45
57 56 55 56 55 55 49 37 38 45 52 48 51 47 48 52 51 50 49 48 51 52 43 41 42 49 50 52 50 44 38 46 35 27 24 35 43 51 49 47 47 46 44 42 43
54 53 54 57 57 54 44 38 42 51 54 52 41 46 41 45 45 47 48 49 48 51 53 46 36 48 46 48 46 44 46 34 34 22 17 31 32 39 42 42 43 41 40 41 42
50 47 51 57 55 48 39 40 46 53 52 46 45 45 44 43 46 46 48 49 52 49 51 48 42 40 44 42 42 40 38 39 40 35 26 26 31 44 40 41 39 39 41 39 39
46 40 52 55 44 45 41 45 47 47 49 46 46 44 42 42 37 38 41 48 54 50 44 46 38 31 37 47 49 46 43 42 33 30 31 32 33 45 42 41 41 40 41 39 39
46 47 53 51 39 40 44 43 45 44 45 44 42 46 45 39 34 38 41 46 48 48 41 44 34 26 28 38 42 35 37 39 39 32 28 26 30 49 46 41 40 38 38 40 40
46 38 44 45 47 44 43 42 40 47 46 47 45 46 42 39 44 41 43 41 42 41 42 44 35 29 25 33 34 29 33 36 34 26 28 28 32 40 44 43 38 36 37 36 38
44 41 44 35 39 41 45 44 42 41 46 46 43 44 42 37 39 39 42 39 39 40 38 37 30 32 34 34 33 31 30 32 30 31 25 30 31 37 40 37 34 37 38 37 37
40 38 40 39 43 40 41 40 40 43 42 40 40 42 41 36 35 31 34 34 34 34 34 34 24 27 24 31 31 28 31 32 31 32 31 31 30 38 34 35 31 35 35 35 36
41 42 38 39 37 37 38 40 40 42 37 40 39 37 34 36 37 37 38 36 35 32 30 29 24 18 15 28 25 16 27 30 31 34 33 26 26 27 29 32 32 31 34 35 36

GFSSW_sfc_temp_063.txt.gz
Temp
63 63 64 64 64 64 64 64 64 64 63 64 64 64 63 63 63 63 65 72 72 70 69 70 68 68 68 64 64 61 49 45 50 55 56 63 61 65 66 62 61 66 65 69 66
63 63 63 64 63 63 64 64 64 63 63 63 64 63 63 63 61 64 72 73 72 70 70 67 64 66 60 61 61 54 46 52 58 56 56 59 57 59 61 62 59 62 67 65 62
62 62 63 63 63 63 63 63 63 63 63 63 63 63 62 61 63 67 71 72 71 70 70 70 69 67 57 59 58 56 50 57 62 61 60 58 61 61 57 57 60 62 65 64 63
62 62 62 62 62 63 63 63 63 63 63 62 62 62 62 62 55 68 69 71 70 71 69 68 64 58 55 54 62 53 60 62 62 62 60 57 59 58 59 64 66 65 67 66 66
61 61 61 61 62 62 63 63 63 63 62 62 63 62 61 58 64 69 68 69 69 69 66 64 61 59 53 56 58 55 57 62 62 61 59 61 57 57 59 66 65 66 67 65 66
60 60 60 60 61 61 62 63 63 62 62 63 63 61 59 55 71 72 69 67 69 66 64 64 62 63 58 57 53 56 56 57 60 61 59 59 55 56 62 62 64 65 64 64 64
60 60 60 60 61 61 61 62 62 62 62 63 63 63 59 62 70 70 70 67 68 67 63 65 65 61 58 55 59 56 53 55 58 58 58 58 54 55 63 62 63 62 60 65 67
60 60 60 60 60 61 61 62 62 62 62 63 63 59 57 67 65 69 70 66 68 69 67 66 67 61 57 58 57 51 47 44 56 56 55 56 47 58 63 59 64 61 59 62 59
60 59 60 60 60 60 61 61 61 62 63 63 57 55 57 67 64 66 66 65 67 67 66 72 65 58 56 49 44 45 40 45 52 57 54 51 48 58 61 59 58 55 59 58 55
60 59 60 60 60 60 61 61 62 61 62 65 67 54 61 61 63 65 64 66 62 61 60 57 54 48 47 44 37 41 40 45 44 54 52 50 49 55 61 55 56 54 54 52 51
60 60 60 60 60 61 59 58 57 54 57 57 58 58 62 62 64 61 64 63 61 56 49 51 44 42 47 48 49 45 44 41 48 55 48 50 48 54 60 57 54 54 52 50 49
60 60 60 60 61 61 57 54 56 55 51 61 62 61 63 64 57 60 65 57 54 48 50 46 41 51 53 52 50 47 43 42 48 52 48 46 47 54 58 55 53 52 51 49 49
59 59 60 60 60 58 57 58 62 58 47 55 60 59 58 62 56 56 61 57 52 48 49 44 49 55 53 49 48 44 43 41 44 46 47 43 41 47 54 52 51 50 50 49 48
59 59 59 60 56 58 57 60 61 59 42 49 52 55 57 59 51 59 60 57 53 48 48 46 53 52 49 47 49 41 48 48 45 39 35 43 30 43 46 45 46 46 45 45 45
59 59 60 60 55 56 59 61 60 56 32 51 50 60 58 54 52 52 57 54 48 49 48 45 47 45 44 48 50 45 47 45 42 37 34 37 32 39 44 41 42 43 44 44 44
59 59 59 58 57 56 57 57 57 43 32 46 49 48 48 50 50 52 51 53 52 47 46 46 49 48 49 50 49 49 44 43 39 36 28 36 36 38 41 42 40 42 42 43 43
58 58 57 59 54 55 56 54 40 34 50 43 44 48 46 46 46 47 45 43 41 37 37 43 45 47 50 44 45 45 39 30 27 25 27 38 34 40 43 45 43 40 40 40 41
57 57 56 56 54 54 54 45 33 42 45 51 49 47 44 48 46 46 43 41 46 42 39 38 36 46 49 47 43 40 40 29 21 23 28 36 31 37 42 44 43 43 41 41 39
57 56 55 53 54 54 48 35 37 42 49 46 48 42 42 47 47 46 43 43 46 46 41 38 38 45 48 49 49 42 37 43 33 20 22 31 36 40 42 40 41 40 39 38 39
54 53 53 55 55 53 43 37 41 49 51 49 39 43 39 43 43 42 43 46 48 50 49 43 35 44 43 45 44 42 44 33 31 18 14 27 31 31 35 36 38 37 36 38 39
51 47 52 56 55 48 38 38 44 51 51 46 43 42 43 40 41 41 43 46 47 46 48 45 40 37 42 40 41 40 35 37 38 32 23 19 28 39 38 37 36 36 38 37 38
47 41 50 55 44 44 40 44 48 46 47 45 46 43 42 43 39 39 40 42 46 47 41 44 37 28 35 43 45 43 38 39 32 28 27 28 31 43 40 38 39 38 39 38 38
43 44 51 51 39 40 43 43 45 43 44 44 43 46 46 40 35 39 41 44 46 42 43 43 32 21 26 34 37 34 36 37 37 31 24 26 29 42 41 38 38 36 36 37 37
44 37 43 45 46 43 41 41 41 45 45 46 44 45 41 38 41 37 38 41 41 41 43 44 34 27 23 31 33 29 32 34 31 23 25 27 30 39 42 40 36 34 34 35 35
41 38 42 35 39 41 43 43 40 38 45 45 41 42 39 34 36 35 40 36 38 40 38 38 29 32 28 30 31 29 30 29 27 30 23 30 30 36 37 32 32 34 34 35 34
38 36 39 35 40 40 40 40 40 42 42 39 39 40 40 36 37 31 35 34 34 34 32 33 23 26 20 31 29 27 30 29 30 31 30 31 30 36 31 34 29 32 33 32 33
40 41 36 36 34 35 37 39 39 41 38 40 40 36 35 34 35 35 36 35 35 31 29 28 23 17 15 26 23 15 25 29 31 31 30 24 29 24 28 32 30 30 31 31 31

GFSSW_sfc_temp_069.txt.gz
Temp
63 63 63 64 63 63 64 64 64 63 63 63 64 64 63 63 63 60 62 69 68 70 68 65 65 64 63 60 60 54 46 42 45 48 51 55 57 60 58 55 59 60 58 61 59
63 63 63 63 63 63 63 63 63 63 63 63 63 63 63 63 58 60 71 72 71 69 65 62 59 61 57 56 56 51 43 48 51 51 51 56 53 55 57 55 53 58 62 60 57
62 62 62 62 62 63 63 63 63 63 63 62 63 63 63 60 61 64 70 72 71 69 67 65 64 61 53 53 52 49 48 51 56 57 55 53 53 54 51 53 56 58 60 61 58
61 61 62 62 62 62 63 63 63 63 62 62 62 63 62 58 53 64 69 71 70 66 66 63 60 54 50 50 54 47 55 55 57 57 54 53 54 53 54 60 59 58 58 56 54
61 60 61 61 61 62 62 63 63 62 62 62 63 62 59 56 61 65 68 68 65 65 62 60 56 55 49 50 52 48 52 55 57 56 54 55 55 54 56 60 59 58 53 50 49
60 60 60 60 61 61 62 62 62 62 62 63 63 62 57 52 66 67 65 64 64 63 61 61 59 59 53 51 51 51 52 54 56 56 55 54 49 54 57 56 58 53 49 48 48
60 60 60 60 60 61 61 62 62 62 62 63 63 60 55 60 65 65 66 63 64 63 60 60 61 57 55 50 54 52 50 52 53 52 52 53 47 51 58 56 52 48 46 47 47
60 60 60 60 60 60 61 61 61 61 62 63 63 55 55 64 62 64 64 62 64 64 63 62 62 59 54 54 53 46 45 43 51 51 51 52 47 56 56 55 47 44 42 45 45
60 59 59 60 60 60 60 61 61 62 62 63 55 53 54 65 60 63 63 61 62 61 62 68 61 54 53 47 42 41 38 41 48 51 50 49 46 58 57 55 45 41 42 43 43
59 59 59 60 60 60 60 61 61 61 61 62 62 51 58 57 59 61 60 63 58 58 57 55 49 45 43 42 37 39 37 39 42 47 49 45 46 52 51 51 41 38 40 41 41
59 59 60 60 60 61 60 55 54 51 53 55 54 55 57 59 61 58 60 60 57 53 46 47 43 41 45 47 44 43 40 40 43 50 45 45 45 41 45 43 40 40 40 40 41
59 59 60 60 60 61 58 52 54 53 49 57 56 56 59 60 54 56 61 55 51 46 46 42 39 49 49 47 46 43 40 40 44 48 46 43 42 40 41 40 40 40 39 40 40
59 59 59 60 60 58 55 55 60 56 46 52 55 54 56 60 55 55 59 54 49 45 45 43 47 50 49 45 43 40 39 38 42 42 42 38 37 37 39 40 41 40 40 40 38
59 59 59 59 56 55 54 60 61 58 40 45 50 53 55 57 50 56 59 55 48 46 46 43 49 48 44 44 45 37 46 45 42 38 33 37 30 34 34 35 37 37 35 36 37
59 59 59 60 54 54 59 59 59 56 31 49 47 57 55 52 49 49 56 53 45 46 46 43 44 43 43 44 47 43 45 43 40 36 31 31 30 30 35 32 33 34 36 35 36
59 59 59 57 57 57 58 58 58 42 32 43 47 46 47 48 48 49 49 53 51 45 43 45 46 47 47 45 47 47 42 39 34 33 27 34 33 31 32 35 33 34 35 37 36
58 58 57 59 54 56 56 52 39 34 47 41 40 44 43 42 44 46 43 43 41 35 35 41 42 44 47 42 44 42 38 29 26 24 27 33 31 34 35 37 37 35 34 35 35
58 57 57 59 56 56 54 44 31 40 43 45 43 42 40 43 42 42 40 38 44 40 35 34 33 44 47 44 40 38 39 30 22 22 28 32 29 34 35 38 38 38 36 35 35
57 57 55 54 55 56 48 38 37 40 46 46 46 41 38 43 43 40 38 38 43 43 39 34 36 43 43 44 46 38 35 40 30 15 22 30 30 34 35 34 35 35 34 34 34
54 53 52 54 56 53 45 40 40 47 48 47 43 44 36 39 40 39 39 41 43 45 45 42 35 40 41 43 41 41 43 33 30 19 15 26 28 31 29 31 33 32 33 34 34
52 48 52 55 54 47 39 38 42 48 50 46 44 41 40 39 41 38 39 41 40 41 46 44 40 36 41 38 38 37 35 34 35 31 21 17 27 35 34 35 34 34 36 34 34
49 42 53 54 42 42 36 41 45 45 47 45 45 44 42 42 39 39 39 42 43 43 42 42 39 31 37 40 40 38 36 36 29 26 25 26 31 36 39 38 38 36 36 34 35
45 45 50 50 36 38 42 42 44 43 44 43 42 44 44 40 36 40 42 44 45 42 42 42 33 27 30 37 35 34 35 35 33 30 23 21 25 36 36 34 35 34 34 34 34
43 39 43 44 45 42 40 40 40 45 44 45 43 44 41 39 42 38 40 41 41 43 44 44 33 28 27 32 34 30 30 33 31 23 22 27 25 30 33 35 34 33 33 32 32
42 38 41 37 39 42 44 41 38 39 44 45 41 42 40 36 38 37 38 36 37 41 39 39 31 31 31 31 33 30 27 30 27 31 30 33 31 34 36 35 34 32 31 30 31
37 37 39 37 39 40 41 40 40 42 42 40 39 42 43 37 38 35 36 35 35 34 36 35 31 31 28 29 31 28 32 32 32 33 30 32 32 36 35 31 28 30 30 31 31
40 39 38 36 36 36 37 38 40 42 40 43 42 39 39 42 40 38 39 39 38 34 33 31 28 26 23 24 26 23 28 31 33 29 33 25 31 24 25 30 29 28 31 31 32

GFSSW_sfc_temp_072.txt.gz
Temp
63 63 63 63 63 63 63 64 64 63 63 63 64 63 63 63 63 58 60 68 66 70 69 63 64 62 61 58 57 52 45 41 43 46 48 53 55 55 56 53 57 58 55 56 57
62 62 63 63 63 63 63 63 63 63 63 63 63 63 63 63 57 58 70 72 71 70 63 60 57 59 56 54 54 50 43 47 50 49 48 53 51 52 52 52 51 55 59 59 59
62 62 62 62 62 62 63 63 63 62 63 62 63 63 63 60 60 62 70 72 71 68 65 62 62 59 53 51 50 47 47 49 53 54 53 51 52 52 49 50 51 53 54 54 51
61 61 61 62 62 62 62 63 63 62 62 62 63 63 62 58 51 62 70 71 70 66 64 61 59 53 49 47 51 45 52 52 55 54 52 50 52 53 52 53 53 51 51 48 47
60 60 60 61 61 62 62 62 62 62 62 62 63 63 60 55 60 64 67 67 64 63 61 59 54 52 47 48 49 46 50 53 55 54 53 52 53 51 54 53 52 50 48 45 45
60 60 60 60 60 61 62 62 62 62 62 62 63 62 56 51 64 65 64 63 63 61 58 59 57 57 51 50 49 49 50 53 54 53 53 52 48 52 51 50 49 48 44 44 44
60 60 60 60 60 61 61 61 62 62 62 62 63 60 55 59 63 63 64 61 63 62 59 59 60 56 53 49 52 50 48 50 51 50 51 52 47 48 52 50 45 43 42 43 43
60 60 60 60 60 60 61 61 61 61 61 62 63 55 54 63 62 63 62 61 61 62 61 61 61 57 52 53 51 45 44 41 49 49 49 49 46 50 52 48 41 40 39 41 42
60 59 59 60 60 60 60 61 61 62 62 63 54 51 53 64 59 61 61 60 60 60 60 66 59 51 51 45 41 40 37 39 47 49 48 47 45 47 48 44 38 37 38 40 40
59 59 59 60 60 60 60 61 61 60 60 61 61 51 58 56 59 61 59 61 57 56 56 54 48 44 42 42 35 37 35 38 41 47 46 42 45 44 42 40 36 35 36 38 39
59 59 60 60 60 60 59 55 53 51 50 54 53 53 56 57 60 57 59 59 56 53 45 45 42 40 45 46 43 42 38 39 43 48 43 44 42 38 41 39 37 36 36 37 38
59 59 60 60 60 60 59 52 53 53 47 55 54 54 58 58 53 56 61 54 51 45 45 41 38 49 47 45 43 40 37 38 42 46 45 43 37 37 38 37 36 36 36 37 38
59 59 59 60 60 58 56 54 59 55 45 51 53 53 55 59 54 53 58 54 49 43 43 40 45 49 48 43 41 39 37 37 40 41 41 38 35 35 36 37 38 37 37 37 36
59 59 59 59 56 56 54 58 59 56 39 44 49 52 54 56 49 56 58 55 46 45 44 42 47 47 43 43 45 36 44 43 41 37 32 37 29 32 33 33 34 34 33 33 34
59 59 59 60 55 53 58 59 58 55 30 47 46 55 53 52 49 49 54 53 44 45 46 43 43 42 42 45 45 41 43 41 39 35 31 30 29 29 32 29 31 33 34 34 35
59 58 58 57 56 57 58 57 55 40 31 42 45 45 46 47 47 49 50 52 50 44 42 43 45 45 46 44 46 44 41 38 34 32 26 35 34 30 29 34 33 34 34 35 35
58 58 57 59 54 55 57 52 39 32 45 40 39 43 42 41 42 45 44 42 40 34 33 39 41 43 46 41 42 41 39 28 25 24 27 31 30 36 36 36 36 35 34 34 35
58 57 57 59 56 56 54 44 32 39 41 43 41 40 39 41 40 41 39 37 42 39 34 33 33 43 45 44 40 38 38 30 22 22 27 31 28 35 33 37 39 38 37 34 33
58 57 57 58 55 55 48 38 37 39 46 43 42 36 36 41 41 38 36 36 42 42 39 33 34 41 42 44 46 38 33 40 29 16 22 29 31 32 33 33 35 35 34 33 33
55 54 55 57 56 52 45 41 41 45 48 47 41 42 35 37 39 39 36 40 41 45 47 43 35 39 40 44 41 40 44 35 31 21 17 27 28 32 28 28 32 32 33 33 33
53 48 52 56 55 48 40 41 43 47 49 45 44 42 40 37 40 36 40 40 41 42 47 45 40 34 40 37 37 37 34 35 37 32 23 19 28 33 33 33 33 34 35 34 34
50 42 52 54 44 41 38 41 44 45 47 46 45 45 42 41 40 39 39 41 44 44 40 43 38 30 35 37 39 37 37 39 34 27 26 26 28 34 36 37 37 36 36 34 35
46 45 51 51 39 35 40 41 44 43 44 43 42 44 44 41 37 41 40 42 45 44 41 41 33 23 29 36 34 34 34 35 34 32 24 23 26 35 35 35 37 36 34 34 32
44 40 43 44 45 42 38 37 39 45 44 44 42 43 40 38 40 37 40 40 41 42 44 43 33 28 27 31 32 28 31 33 34 30 28 29 25 30 31 33 34 35 34 33 32
41 39 40 36 39 42 43 40 38 38 44 45 40 40 39 36 37 36 39 36 38 42 41 39 32 31 31 32 33 29 28 30 30 32 31 34 32 35 36 36 37 37 34 32 32
35 36 39 37 39 40 41 39 38 40 41 38 37 40 40 34 36 34 37 36 36 34 36 37 32 32 30 30 32 31 32 31 32 32 29 30 31 34 37 33 32 33 32 32 32
40 40 38 35 34 36 38 39 40 43 43 43 42 40 38 40 41 36 38 41 39 35 34 33 30 29 27 25 25 25 28 32 34 32 35 30 38 31 31 34 34 31 32 32 32

GFSSW_sfc_temp_075.txt.gz
Temp
63 63 63 63 63 63 63 64 63 63 63 63 64 63 63 63 63 59 61 67 67 70 69 64 66 64 63 60 59 56 48 45 49 49 54 58 58 61 61 62 62 64 63 60 61
62 62 63 63 63 63 63 63 63 63 63 63 63 64 63 63 57 58 69 72 71 70 65 62 59 61 58 57 56 53 47 50 53 53 54 57 56 58 59 59 60 61 61 55 55
62 62 62 62 62 62 63 63 63 62 63 62 63 63 63 59 60 61 70 72 70 69 66 63 63 61 55 55 54 51 50 52 55 56 56 55 55 58 56 55 57 58 55 51 51
61 61 61 61 62 62 62 63 63 62 62 62 63 63 62 58 51 62 69 71 70 66 65 62 60 55 51 50 53 50 53 54 56 56 55 53 56 55 55 56 52 50 49 48 47
61 60 61 61 61 62 62 62 62 62 62 62 63 63 60 56 61 63 67 67 64 64 62 60 56 54 51 51 52 50 52 54 55 55 54 54 54 54 51 49 50 49 47 46 46
60 60 60 60 60 61 62 62 62 62 62 62 63 63 56 51 63 65 64 64 63 62 59 60 58 58 53 52 51 52 52 53 54 54 54 53 51 55 52 49 47 46 44 44 44
60 60 60 60 60 61 61 61 62 61 62 62 63 60 54 59 63 63 64 61 62 62 60 59 60 57 55 50 53 51 50 51 52 52 53 53 49 49 51 47 44 42 43 43 44
60 60 60 60 60 60 61 61 61 61 62 62 63 55 54 62 60 62 62 60 61 62 62 61 61 57 54 54 52 47 46 44 51 51 50 52 46 48 48 46 41 40 41 42 43
60 59 59 60 60 60 60 61 61 62 62 63 54 51 53 63 59 61 61 60 60 60 60 64 59 52 52 46 43 42 40 41 47 51 50 49 47 43 45 43 39 39 40 41 41
59 59 60 60 60 60 60 61 61 60 60 61 61 51 57 56 59 60 59 61 57 57 56 54 48 45 43 43 37 38 38 40 43 48 48 45 46 41 41 40 37 37 38 39 40
60 60 60 60 60 61 58 55 54 51 52 54 52 52 54 56 59 57 59 59 56 53 47 46 43 41 45 46 44 43 40 41 44 49 46 45 45 37 40 39 37 37 38 38 39
60 59 60 60 60 60 57 52 54 53 47 54 52 53 56 58 52 55 60 54 51 45 44 41 39 49 47 45 45 42 40 40 44 47 45 43 43 38 38 37 38 38 38 38 39
59 59 59 60 60 57 53 54 58 53 45 50 52 51 54 58 54 53 57 53 48 43 43 40 45 48 47 42 42 40 39 39 42 42 42 40 38 35 36 37 38 38 39 39 38
59 59 59 59 55 56 53 59 58 55 39 43 48 51 52 55 48 56 58 55 48 45 43 42 47 46 43 42 45 37 44 43 42 39 34 40 31 34 34 34 36 36 36 37 37
59 59 59 61 55 53 58 59 58 56 30 46 45 54 51 51 48 48 54 52 45 45 46 42 41 42 41 44 46 42 43 41 39 37 34 34 33 34 33 31 33 35 36 36 37
59 58 58 57 56 55 57 58 55 39 30 41 43 43 45 46 46 48 49 53 50 45 42 42 45 45 46 44 46 43 40 39 35 34 27 35 37 33 29 35 34 36 36 36 36
58 58 57 59 54 55 57 54 40 31 44 40 38 42 40 40 41 43 43 41 40 34 34 38 40 43 45 41 41 40 39 31 26 25 27 32 32 40 37 38 38 36 36 37 36
58 57 56 59 56 56 54 46 31 38 39 42 40 38 38 40 39 40 39 36 42 39 33 32 32 40 43 45 40 37 41 32 22 22 27 32 28 37 35 38 42 40 38 36 35
57 57 56 57 56 56 48 38 37 41 44 41 42 35 35 41 42 37 35 36 42 42 40 33 33 39 41 43 47 37 35 42 30 18 22 29 34 33 33 34 36 36 35 35 35
54 54 54 59 56 52 45 41 42 46 46 47 42 42 34 36 39 37 35 39 41 45 47 43 34 38 40 43 40 40 43 35 33 23 18 28 30 35 29 29 33 34 34 35 36
53 48 53 58 55 48 40 41 45 47 50 45 44 42 40 38 41 38 40 40 42 40 48 44 41 33 39 36 37 36 35 36 38 34 25 20 29 36 35 33 33 36 37 37 35
50 43 52 55 45 43 42 44 45 44 48 48 46 47 44 42 39 40 40 42 43 44 40 44 39 30 34 39 40 38 37 38 34 26 27 27 30 35 35 37 37 37 38 37 37
46 47 51 52 40 40 39 41 43 43 44 44 43 46 45 43 37 41 41 43 44 42 42 42 34 29 30 34 34 34 35 35 35 33 26 28 29 35 35 35 38 37 38 36 35
43 40 43 45 46 45 40 39 39 45 45 44 42 43 40 39 43 39 39 40 42 43 45 44 34 32 31 31 32 29 31 33 35 30 29 33 28 32 31 34 36 38 37 35 36
41 38 40 37 40 42 42 39 37 38 44 44 40 40 39 34 35 34 39 36 38 42 40 40 32 32 28 30 30 27 28 31 31 35 33 30 32 35 37 36 37 39 36 36 35
37 36 39 36 38 40 42 38 38 40 41 39 38 39 40 33 36 32 35 35 35 36 37 38 32 32 29 32 32 29 31 31 31 32 31 31 33 40 39 37 37 37 36 34 35
40 40 37 35 33 34 37 39 39 43 42 42 41 39 37 39 41 40 40 40 39 36 35 34 31 30 27 27 27 26 30 31 32 30 35 29 36 32 33 37 38 36 35 36 36